Location: Chuathbaluk
(61.5726°N, 159.2454°W)
Time: 17:27:10
(UTC+00:00)

ITAMSAT 1 - Pass Details

Date: 17 January 2021
Orbit: 784 x 796 km, 98.9° (Epoch: 05 March)

Event Time Altitude Azimuth Distance (km) Brightness Sun altitude
Rises 04:46:07 0° 188° (S) 3,278 11.1 -18.0°
Reaches altitude 10° 04:48:37 10° 196° (SSW) 2,351 10.4 -18.3°
Maximum altitude 04:53:24 37° 264° (W) 1,217 9.2 -18.9°
Drops below altitude 10° 04:58:13 10° 331° (NNW) 2,360 10.4 -19.4°
Sets 05:00:44 0° 340° (NNW) 3,292 11.0 -19.7°
